Regional Weather Roundup
Issued by NWS

Home | Current Version | Previous Version | Graphics & Text | Print | Product List | Glossary On
Versions: 1 2 3 4 5 6 7 8 9 10 11 12 13 14 15 16 17 18 19 20 21 22 23 24 25 26 27 28 29 30 31 32 33 34 35 36 37 38 39 40 41 42 43 44 45 46 47 48 49 50
000
ASUS43 KFSD 280910
RWRSD

WEATHER ROUNDUP FOR SOUTH DAKOTA
NATIONAL WEATHER SERVICE SIOUX FALLS SD
400 AM CDT FRI JUL 28 2017

NOTE: "FAIR" INDICATES FEW OR NO CLOUDS BELOW 12,000 FEET WITH NO
SIGNIFICANT WEATHER AND/OR OBSTRUCTIONS TO VISIBILITY.


SDZ001>005-009-010-012>017-281000-
NORTHWEST AND NORTH CENTRAL SOUTH DAKOTA

CITY           SKY/WX    TMP DP  RH WIND       PRES   REMARKS
BUFFALO          N/A     61  57  87 SE8       29.97S
FAITH            N/A     65  61  87 SE12      30.05S
MOBRIDGE       CLOUDY    72  63  73 SE8       30.03S
$$

SDZ012>016-024>037-041>051-057-063-072>074-281000-
SOUTHWEST AND SOUTH CENTRAL SOUTH DAKOTA

CITY           SKY/WX    TMP DP  RH WIND       PRES   REMARKS
RAPID CTY ARPT CLEAR     60  55  83 SE7       30.04F
PIERRE         CLOUDY    71  60  68 E5        30.04R
CUSTER         LGT RAIN  57  54  89 W7        30.15F
ELLSWORTH AFB  MOCLDY    62  58  88 SE12      30.02F
PHILIP         CLOUDY    68  63  84 E7        30.04F
PINE RIDGE     PTCLDY    63  61  93 W3        30.08R
SPEARFISH      FAIR      64  57  77 CALM      30.05R
WINNER         CLOUDY    70  62  76 SE5       30.07R
$$

SDZ004>011-016>023-039-040-281000-
NORTHEAST SOUTH DAKOTA

CITY           SKY/WX    TMP DP  RH WIND       PRES   REMARKS
ABERDEEN       CLOUDY    66  63  90 SE3       30.08R
WATERTOWN      CLOUDY    67  59  75 CALM      30.09S
BROOKINGS      PTCLDY    64  63  96 CALM      30.10R
SISSETON         N/A     59  58  96 CALM      30.08R
$$

SDZ017-020-022-023-036>040-048>070-281000-
SOUTHEAST SOUTH DAKOTA

CITY           SKY/WX    TMP DP  RH WIND       PRES   REMARKS
SIOUX FALLS    CLEAR     62  60  93 NE3       30.08R
HURON          CLOUDY    67  63  87 SE6       30.07R
CHAMBERLAIN    CLOUDY    70  65  85 SE5       30.07R
MITCHELL       CLOUDY    66  64  93 CALM      30.07R
YANKTON        CLEAR     65  62  90 NE6       30.05S
$$

ABBREVIATIONS USED IN REMARKS
   TC - TEMPERATURE IN CELSIUS
  WCI - WIND CHILL INDEX
   HX - HEAT INDEX
  VSB - VISIBILITY




USA.gov is the U.S. government's official web portal to all federal, state and local government web resources and services.